Date,TemperatureHighF,TemperatureAvgF,TemperatureLowF,DewpointHighF,DewpointAvgF,DewpointLowF,HumidityHigh,HumidityAvg,HumidityLow,PressureMaxIn,PressureMinIn,WindSpeedMaxMPH,WindSpeedAvgMPH,GustSpeedMaxMPH,PrecipitationSumIn
2014-1-1,48.9,44.0,40.8,47.5,41.9,37.8,95,92,89,29.37,28.71,15,3,15,0.18
2014-1-2,48.7,43.6,39.0,47.0,40.7,36.3,94,89,76,29.33,28.93,21,5,21,0.39
2014-1-3,46.5,42.1,39.3,40.7,37.4,34.6,91,84,77,29.33,28.91,30,10,30,0.45
2014-1-4,40.6,36.8,34.1,37.9,34.2,31.2,92,90,85,29.54,29.20,11,2,11,0.12
2014-1-5,52.1,45.4,37.5,50.7,43.3,34.6,95,92,85,29.54,29.00,114,5,114,0.16
2014-1-6,49.8,47.1,44.9,45.4,43.3,41.5,91,87,82,29.23,28.83,24,10,24,0.57
2014-1-7,49.6,45.8,43.5,46.5,42.6,40.4,90,89,84,29.75,29.23,19,7,19,0.24
2014-1-8,44.9,42.5,39.7,42.2,40.5,37.8,94,93,89,29.94,29.75,21,2,21,0.06
2014-1-9,46.2,40.7,37.4,41.8,38.2,35.5,94,91,84,29.99,29.78,10,3,10,0.06
2014-1-10,47.6,43.3,36.5,46.2,41.0,33.8,95,92,86,30.10,29.85,11,2,11,0.10
2014-1-11,46.0,37.9,32.5,44.4,35.6,30.2,94,91,89,30.30,30.04,19,1,19,0.14
2014-1-12,48.9,45.2,38.4,47.5,43.1,35.6,95,92,89,30.04,29.53,20,5,20,0.20
2014-1-13,42.9,39.6,34.3,39.3,36.1,30.5,92,87,83,29.72,29.54,114,2,114,0.16
2014-1-14,50.5,42.4,32.7,48.8,40.1,29.4,95,91,86,29.76,29.49,13,3,13,0.18
2014-1-15,49.6,46.3,41.5,48.2,44.2,38.8,95,92,86,29.50,29.11,16,4,16,0.14
2014-1-16,46.5,43.1,40.6,44.6,40.9,38.1,94,92,89,29.12,28.91,9,2,9,0.14
2014-1-17,47.3,42.3,38.8,43.8,39.6,36.7,92,90,86,29.28,29.08,9,2,9,0.12
2014-1-18,44.7,39.6,35.2,41.2,36.2,32.0,92,88,77,29.34,29.16,8,1,8,0.02
2014-1-19,44.4,38.3,33.6,41.4,35.5,30.7,93,90,86,29.72,29.33,13,2,13,0.02
2014-1-20,44.9,40.0,35.7,41.7,36.9,33.1,91,89,83,29.96,29.70,11,2,11,0.02
2014-1-21,48.9,45.4,41.3,46.8,43.1,38.7,95,92,87,29.80,29.54,13,4,13,0.08
2014-1-22,48.7,43.2,40.2,43.7,39.8,36.4,92,88,80,30.05,29.58,11,3,11,0.10
2014-1-23,48.3,44.5,42.6,45.2,40.7,39.0,93,86,80,30.18,29.96,17,4,17,0.06
2014-1-24,56.3,51.7,47.3,53.2,49.0,43.2,95,91,83,30.03,29.81,114,6,114,0.02
2014-1-25,51.0,46.1,42.4,46.5,41.9,36.8,93,85,71,30.18,29.95,21,6,21,0.08
2014-1-26,51.4,42.6,35.4,50.0,38.8,31.3,95,86,76,30.03,29.38,26,7,26,0.18
2014-1-27,45.3,41.3,38.3,40.9,37.8,34.4,90,87,82,29.39,29.15,17,7,17,0.51
2014-1-28,46.0,42.4,39.0,41.6,38.2,34.6,92,85,78,29.39,29.04,15,6,15,0.29
2014-1-29,46.9,41.6,38.8,39.4,36.8,34.3,89,83,72,29.74,29.37,18,4,18,0.02
2014-1-30,44.4,40.6,37.2,41.7,37.9,34.2,92,90,89,29.76,29.63,5,0,5,0.00
2014-1-31,47.8,42.9,35.7,46.4,39.9,31.0,95,89,80,29.67,28.93,15,5,15,0.02
2014-2-1,44.9,40.6,35.2,41.1,37.2,30.8,91,87,83,29.45,28.86,24,9,24,0.12
2014-2-2,48.2,43.4,37.7,44.2,39.8,33.7,91,87,80,29.65,29.31,19,5,19,0.22
2014-2-3,46.7,43.0,38.1,44.6,39.6,33.8,93,88,77,29.36,29.08,22,3,22,0.18
2014-2-4,45.5,40.7,33.6,43.3,38.0,31.0,93,90,85,29.36,28.24,19,4,19,0.18
2014-2-5,47.4,44.8,42.4,44.6,42.6,40.5,94,92,88,28.65,28.14,16,4,16,0.14
2014-2-13,42.4,38.5,37.0,35.4,33.8,32.5,87,83,76,29.49,29.39,12,4,12,0.12
2014-2-14,48.0,42.6,37.4,46.0,40.1,33.4,95,91,85,29.46,28.34,29,5,29,0.22
2014-2-15,48.0,42.0,37.7,40.9,37.3,33.7,90,84,71,29.82,28.78,17,5,17,0.18
2014-2-16,48.3,41.6,34.1,44.4,38.4,30.7,94,89,84,29.84,29.38,114,3,114,0.18
2014-2-17,48.3,43.5,39.2,45.1,40.5,36.7,94,89,86,29.77,29.37,7,1,7,0.02
2014-2-18,49.6,41.0,32.7,46.3,38.5,30.6,94,91,84,29.94,29.76,7,1,7,0.10
2014-2-19,51.4,48.2,42.6,49.7,46.8,40.7,96,95,92,29.94,29.42,114,3,114,0.06
2014-2-20,49.8,43.2,36.6,48.7,39.4,32.8,96,87,73,29.65,29.33,19,5,19,0.02
2014-2-21,46.9,41.1,36.3,41.2,37.2,33.1,91,86,79,29.74,29.58,17,7,17,0.00
2014-2-22,49.2,44.6,38.1,47.4,42.1,34.9,94,91,87,29.78,29.48,17,5,17,0.02
2014-2-23,50.1,47.3,42.9,47.6,44.8,40.1,94,91,86,29.57,29.36,21,5,21,0.04
2014-2-24,47.3,42.9,39.3,43.9,40.1,37.2,93,90,84,29.56,29.16,18,4,18,0.02
2014-2-25,48.7,43.7,39.3,42.4,39.0,34.9,91,84,73,29.77,29.09,16,6,16,0.06
2014-2-26,50.0,43.7,38.8,46.3,39.6,34.6,94,85,74,30.00,29.62,17,5,17,0.10
2014-2-27,48.5,42.8,38.8,41.2,38.0,34.8,91,83,69,29.86,29.28,13,4,13,0.16
2014-2-28,46.7,39.9,34.1,39.7,35.6,31.9,93,85,71,29.91,29.32,20,5,20,0.12
2014-3-1,49.1,43.9,39.0,45.5,41.1,35.1,94,90,84,29.82,29.54,10,1,10,0.08
2014-3-2,49.1,42.7,37.5,46.0,39.7,33.9,94,89,76,29.55,28.85,13,3,13,0.04
2014-3-3,48.7,40.9,33.6,39.4,36.1,31.0,91,83,65,29.70,28.85,16,5,16,0.04
2014-3-4,49.6,43.2,39.7,45.0,39.1,35.6,90,85,78,30.05,29.65,8,1,8,0.04
2014-3-5,50.1,45.0,38.1,47.2,42.1,35.1,94,90,83,30.18,30.03,17,2,17,0.02
2014-3-6,51.9,50.1,48.9,50.5,48.7,47.2,95,95,94,30.17,29.97,24,3,24,0.00
2014-3-7,52.3,47.7,43.5,48.8,41.7,36.9,95,81,58,30.39,29.96,17,3,17,0.02
2014-3-8,50.3,48.4,46.2,47.4,46.1,43.1,94,92,88,30.21,29.99,17,6,17,0.00
2014-3-9,52.8,48.4,41.3,51.1,46.5,38.4,95,93,90,30.43,30.03,16,2,16,0.00
2014-3-10,51.8,42.6,35.9,42.7,37.6,33.3,92,83,64,30.69,30.42,17,1,17,0.00
2014-3-11,50.5,40.9,34.7,44.1,36.6,31.7,90,85,68,30.71,30.64,11,1,11,0.00
2014-3-12,54.1,44.1,38.8,46.3,40.0,35.8,91,86,72,30.69,30.58,4,0,4,0.00
2014-3-13,55.2,45.1,38.8,48.3,42.0,36.7,94,89,77,30.64,30.55,7,0,7,0.00
2014-3-14,53.9,47.3,43.1,46.7,43.8,40.9,94,88,76,30.65,30.55,10,2,10,0.00
2014-3-15,58.2,49.1,41.9,48.0,42.9,38.0,91,80,57,30.68,30.61,14,3,14,0.00
2014-3-16,54.3,48.3,42.0,47.9,44.0,38.4,92,85,78,30.64,30.46,11,3,11,0.00
2014-3-17,51.4,47.7,44.2,47.6,43.4,40.3,90,85,80,30.46,30.18,8,2,8,0.06
2014-3-18,55.4,49.5,45.1,46.5,43.7,40.3,92,81,67,30.38,30.04,21,6,21,0.00
2014-3-19,53.0,49.1,46.0,47.7,45.4,42.6,90,87,82,30.36,29.89,18,8,18,0.00
2014-3-20,51.0,46.1,38.8,46.9,41.4,33.6,94,84,65,29.90,29.56,23,7,23,0.00
2014-3-21,49.2,40.9,35.4,42.8,37.0,32.2,89,86,76,29.78,29.48,17,4,17,0.00
2014-3-22,45.6,39.2,34.5,40.8,35.2,31.3,90,86,78,29.90,29.49,16,5,16,0.00
2014-3-23,52.5,43.8,36.6,40.9,36.9,32.8,88,77,57,30.11,29.90,14,3,14,0.00
2014-3-24,46.9,43.3,40.6,43.5,39.9,36.1,93,88,83,29.96,29.52,15,5,15,0.00
2014-3-25,51.4,46.7,40.6,43.4,38.9,37.2,92,75,61,30.24,29.77,19,7,19,0.00
2014-3-26,47.6,47.6,47.6,37.6,37.6,37.6,68,68,68,30.24,30.24,5,5,5,0.00
2014-3-27,47.6,47.6,47.6,37.6,37.6,37.6,68,68,68,30.24,30.24,5,5,5,0.00
2014-3-28,47.6,47.6,47.6,37.6,37.6,37.6,68,68,68,30.24,30.24,5,5,5,0.00
2014-3-29,47.6,47.6,47.6,37.6,37.6,37.6,68,68,68,30.24,30.24,5,5,5,0.00
2014-3-30,47.6,47.6,47.6,37.6,37.6,37.6,68,68,68,30.24,30.24,5,5,5,0.00
2014-3-31,47.6,47.6,47.6,37.6,37.6,37.6,68,68,68,30.24,30.24,5,5,5,0.00
2014-4-1,47.6,47.6,47.6,37.6,37.6,37.6,68,68,68,30.24,30.24,5,5,5,0.00
2014-4-2,47.6,47.6,47.6,37.6,37.6,37.6,68,68,68,30.24,30.24,5,5,5,0.00
2014-4-3,47.6,47.6,47.6,37.6,37.6,37.6,68,68,68,30.24,30.24,5,5,5,0.00
2014-4-4,47.6,47.6,47.6,37.6,37.6,37.6,68,68,68,30.24,30.24,5,5,5,0.00
2014-4-5,47.6,47.6,47.6,37.6,37.6,37.6,68,68,68,30.24,30.24,5,5,5,0.00
2014-4-6,47.6,47.6,47.6,37.6,37.6,37.6,68,68,68,30.24,30.24,5,5,5,0.00
2014-4-7,47.6,47.6,47.6,37.6,37.6,37.6,68,68,68,30.24,30.24,5,5,5,0.00
2014-4-8,47.6,47.6,47.6,37.6,37.6,37.6,68,68,68,30.24,30.24,5,5,5,0.00